�������l�o���
Date,Time,MP-1(��Sv/h),MP-2(��Sv/h),MP-3(��Sv/h),MP-4(��Sv/h),MP-5(��Sv/h),MP-6(��Sv/h),MP-7(��Sv/h),MP-8(��Sv/h),����,����(m/s),���J
2023/12/18,00:00,0.507,0.768,0.479,0.960,0.691,0.310,0.556,0.522,���k��,3.9,��
2023/12/18,00:10,0.505,0.770,0.478,0.964,0.689,0.310,0.557,0.522,��,3.0,��
2023/12/18,00:20,0.507,0.768,0.480,0.962,0.689,0.312,0.557,0.521,���k��,3.8,��
2023/12/18,00:30,0.507,0.769,0.478,0.962,0.690,0.310,0.558,0.521,���k��,2.9,��
2023/12/18,00:40,0.507,0.768,0.478,0.962,0.690,0.311,0.558,0.524,���k��,2.0,��
2023/12/18,00:50,0.507,0.767,0.480,0.960,0.689,0.311,0.556,0.523,�k�k��,3.0,��
2023/12/18,01:00,0.507,0.767,0.479,0.960,0.691,0.310,0.557,0.521,�k,4.9,��
2023/12/18,01:10,0.507,0.769,0.476,0.964,0.690,0.310,0.557,0.522,�k�k��,5.8,��
2023/12/18,01:20,0.508,0.768,0.477,0.964,0.690,0.311,0.556,0.528,�k�k��,4.8,��
2023/12/18,01:30,0.507,0.769,0.478,0.961,0.688,0.310,0.558,0.522,�k�k��,3.7,��
2023/12/18,01:40,0.506,0.768,0.479,0.962,0.690,0.311,0.557,0.522,�k��,2.6,��
2023/12/18,01:50,0.507,0.769,0.477,0.962,0.690,0.311,0.556,0.522,�k��,2.3,��
2023/12/18,02:00,0.507,0.768,0.478,0.962,0.690,0.309,0.557,0.522,�k��,2.5,��
2023/12/18,02:10,0.506,0.767,0.479,0.961,0.689,0.311,0.556,0.522,�k��,2.6,��
2023/12/18,02:20,0.506,0.767,0.478,0.963,0.690,0.310,0.557,0.523,�k��,2.3,��
2023/12/18,02:30,0.506,0.767,0.478,0.963,0.689,0.310,0.558,0.522,�k��,2.3,��
2023/12/18,02:40,0.508,0.767,0.479,0.963,0.688,0.311,0.557,0.523,��,1.7,�L
2023/12/18,02:50,0.507,0.768,0.479,0.963,0.690,0.310,0.555,0.521,�k��,1.7,�L
2023/12/18,03:00,0.507,0.769,0.480,0.960,0.690,0.309,0.557,0.523,�k��,2.5,�L
2023/12/18,03:10,0.506,0.768,0.480,0.963,0.689,0.309,0.558,0.523,�k��,2.2,��
2023/12/18,03:20,0.507,0.768,0.480,0.962,0.691,0.310,0.557,0.523,�k��,2.6,��
2023/12/18,03:30,0.508,0.770,0.479,0.960,0.690,0.309,0.557,0.522,�k��,1.4,��
2023/12/18,03:40,0.508,0.768,0.477,0.962,0.690,0.310,0.556,0.522,�k��,2.0,��
2023/12/18,03:50,0.507,0.768,0.479,0.961,0.692,0.310,0.556,0.521,���k��,1.2,��
2023/12/18,04:00,0.508,0.766,0.479,0.962,0.691,0.310,0.555,0.522,�k��,0.9,��
2023/12/18,04:10,0.507,0.767,0.479,0.961,0.691,0.312,0.556,0.523,-,CALM,��
2023/12/18,04:20,0.507,0.765,0.479,0.963,0.689,0.309,0.555,0.520,�k,0.8,��
2023/12/18,04:30,0.506,0.768,0.477,0.960,0.690,0.310,0.558,0.521,�k�k��,1.2,��
2023/12/18,04:40,0.507,0.768,0.477,0.963,0.689,0.310,0.556,0.521,�k��,2.0,��
2023/12/18,04:50,0.507,0.767,0.479,0.961,0.689,0.309,0.556,0.522,���k��,2.2,��
2023/12/18,05:00,0.507,0.768,0.476,0.961,0.691,0.310,0.555,0.521,�k�k��,2.0,��
2023/12/18,05:10,0.508,0.766,0.477,0.962,0.689,0.309,0.556,0.522,�k,3.9,��
2023/12/18,05:20,0.506,0.768,0.479,0.961,0.690,0.310,0.556,0.522,�k,3.5,��
2023/12/18,05:30,0.505,0.766,0.477,0.964,0.690,0.311,0.557,0.521,�k,4.0,��
2023/12/18,05:40,0.504,0.765,0.478,0.962,0.690,0.310,0.558,0.521,�k,4.8,��
2023/12/18,05:50,0.507,0.766,0.478,0.960,0.690,0.309,0.556,0.522,�k,4.8,��
2023/12/18,06:00,0.507,0.765,0.477,0.963,0.688,0.309,0.557,0.524,�k�k��,3.3,��
2023/12/18,06:10,0.506,0.765,0.478,0.961,0.690,0.309,0.556,0.523,�k,2.8,��
2023/12/18,06:20,0.505,0.768,0.478,0.964,0.689,0.309,0.557,0.521,�k,3.3,��
2023/12/18,06:30,0.505,0.766,0.478,0.962,0.689,0.310,0.557,0.521,�k,3.4,��
2023/12/18,06:40,0.505,0.767,0.477,0.960,0.690,0.309,0.555,0.522,�k��,3.7,��
2023/12/18,06:50,0.505,0.768,0.478,0.961,0.688,0.309,0.556,0.522,�k��,6.3,��
2023/12/18,07:00,0.505,0.766,0.477,0.960,0.690,0.308,0.556,0.522,���k��,4.8,��
2023/12/18,07:10,0.507,0.765,0.478,0.962,0.690,0.310,0.556,0.520,��,2.0,��
2023/12/18,07:20,0.506,0.765,0.479,0.963,0.687,0.310,0.555,0.522,��,2.3,��
2023/12/18,07:30,0.505,0.765,0.479,0.962,0.689,0.309,0.556,0.521,��,2.3,��
2023/12/18,07:40,0.506,0.766,0.478,0.964,0.690,0.310,0.554,0.521,�쐼,2.6,��
2023/12/18,07:50,0.506,0.766,0.477,0.961,0.689,0.309,0.556,0.522,�쐼,2.2,��
2023/12/18,08:00,0.505,0.766,0.475,0.961,0.689,0.308,0.556,0.521,�쐼,2.6,��
2023/12/18,08:10,0.505,0.767,0.477,0.964,0.689,0.310,0.556,0.521,��쐼,3.1,��
2023/12/18,08:20,0.506,0.767,0.478,0.958,0.687,0.308,0.556,0.522,�쐼,1.8,��
2023/12/18,08:30,0.506,0.766,0.477,0.962,0.690,0.309,0.556,0.523,-,CALM,��
2023/12/18,08:40,0.507,0.766,0.478,0.962,0.690,0.309,0.557,0.521,-,CALM,��
2023/12/18,08:50,0.507,0.767,0.478,0.962,0.688,0.310,0.556,0.522,�k�k��,1.2,��
2023/12/18,09:00,0.505,0.765,0.478,0.962,0.690,0.308,0.556,0.522,-,CALM,��
2023/12/18,09:10,0.507,0.767,0.477,0.961,0.689,0.310,0.557,0.523,�k�k��,0.6,��
2023/12/18,09:20,0.507,0.766,0.477,0.960,0.689,0.309,0.556,0.522,�k,2.6,��
2023/12/18,09:30,0.508,0.768,0.478,0.963,0.690,0.309,0.558,0.522,�k�k��,2.2,��
2023/12/18,09:40,0.507,0.767,0.478,0.962,0.688,0.308,0.558,0.521,�k��,3.9,��
2023/12/18,09:50,0.507,0.765,0.477,0.961,0.689,0.310,0.558,0.523,�k��,4.0,��
2023/12/18,10:00,0.507,0.766,0.480,0.963,0.690,0.310,0.558,0.522,�k��,4.2,��
2023/12/18,10:10,0.508,0.767,0.479,0.960,0.691,0.308,0.559,0.521,�k�k��,5.1,��
2023/12/18,10:20,0.509,0.770,0.477,0.962,0.688,0.309,0.556,0.522,�k�k��,3.7,��
2023/12/18,10:30,0.509,0.767,0.479,0.962,0.691,0.309,0.557,0.522,�k�k��,3.7,��
2023/12/18,10:40,0.506,0.766,0.478,0.963,0.690,0.309,0.558,0.522,�k,3.1,��
2023/12/18,10:50,0.507,0.768,0.479,0.963,0.690,0.310,0.556,0.523,�k�k��,2.3,��
2023/12/18,11:00,0.507,0.765,0.479,0.964,0.691,0.310,0.558,0.524,�k�k��,2.6,��
2023/12/18,11:10,0.508,0.767,0.478,0.962,0.690,0.310,0.558,0.523,�k,3.4,��
2023/12/18,11:20,0.509,0.768,0.478,0.963,0.691,0.309,0.558,0.522,�k,3.3,��
2023/12/18,11:30,0.509,0.767,0.479,0.962,0.691,0.309,0.557,0.523,�k�k��,4.8,��
2023/12/18,11:40,0.508,0.767,0.479,0.964,0.690,0.309,0.557,0.523,�k,4.4,��
2023/12/18,11:50,0.506,0.768,0.479,0.963,0.693,0.309,0.556,0.523,�k�k��,5.2,�L
2023/12/18,12:00,0.508,0.767,0.479,0.963,0.693,0.309,0.557,0.523,�k�k��,5.1,��
2023/12/18,12:10,0.508,0.769,0.480,0.963,0.692,0.311,0.558,0.521,�k,5.1,��
2023/12/18,12:20,0.509,0.768,0.479,0.964,0.691,0.311,0.557,0.523,�k�k��,4.1,��
2023/12/18,12:30,0.508,0.768,0.480,0.963,0.692,0.312,0.557,0.522,�k�k��,4.6,��
2023/12/18,12:40,0.508,0.768,0.479,0.964,0.691,0.311,0.558,0.522,�k�k��,4.4,�L
2023/12/18,12:50,0.510,0.769,0.481,0.965,0.692,0.310,0.559,0.521,�k�k��,3.3,��
2023/12/18,13:00,0.508,0.768,0.480,0.963,0.693,0.311,0.558,0.523,�k��,4.0,��
2023/12/18,13:10,0.508,0.767,0.479,0.964,0.691,0.310,0.558,0.521,�k�k��,2.5,��
2023/12/18,13:20,0.508,0.767,0.480,0.961,0.691,0.310,0.559,0.522,�k�k��,3.3,��
2023/12/18,13:30,0.509,0.770,0.479,0.961,0.690,0.309,0.559,0.523,�k�k��,3.2,��
2023/12/18,13:40,0.508,0.768,0.480,0.964,0.691,0.310,0.558,0.522,�k�k��,4.9,��
2023/12/18,13:50,0.508,0.766,0.478,0.965,0.690,0.311,0.559,0.524,�k,4.2,��
2023/12/18,14:00,0.507,0.767,0.479,0.964,0.692,0.310,0.559,0.523,�k�k��,4.0,��
2023/12/18,14:10,0.508,0.768,0.479,0.964,0.691,0.309,0.558,0.522,�k�k��,3.1,��
2023/12/18,14:20,0.508,0.768,0.479,0.965,0.692,0.310,0.558,0.524,�k�k��,3.1,��
2023/12/18,14:30,0.508,0.767,0.480,0.965,0.693,0.310,0.559,0.523,�k�k��,2.8,��
2023/12/18,14:40,0.507,0.767,0.480,0.964,0.691,0.310,0.557,0.523,�k�k��,2.8,��
2023/12/18,14:50,0.507,0.766,0.479,0.963,0.693,0.310,0.559,0.520,�k,2.2,��
2023/12/18,15:00,0.507,0.768,0.480,0.963,0.691,0.310,0.559,0.522,�k�k��,3.1,��
2023/12/18,15:10,0.507,0.768,0.480,0.965,0.690,0.309,0.557,0.523,�k�k��,3.3,��
2023/12/18,15:20,0.506,0.767,0.478,0.963,0.691,0.310,0.558,0.522,�k�k��,3.8,�L
2023/12/18,15:30,0.506,0.766,0.480,0.961,0.691,0.309,0.558,0.522,�k��,3.8,�L
2023/12/18,15:40,0.509,0.767,0.479,0.962,0.691,0.310,0.560,0.523,�k�k��,2.3,��
2023/12/18,15:50,0.506,0.770,0.479,0.962,0.691,0.310,0.558,0.522,�k,2.3,��
2023/12/18,16:00,0.508,0.770,0.480,0.965,0.691,0.309,0.558,0.521,�k,3.2,��
2023/12/18,16:10,0.508,0.769,0.480,0.964,0.690,0.310,0.557,0.522,�k�k��,3.4,��
2023/12/18,16:20,0.507,0.768,0.480,0.964,0.691,0.309,0.560,0.523,�k�k��,4.2,��
2023/12/18,16:30,0.507,0.770,0.480,0.965,0.691,0.309,0.559,0.523,�k�k��,3.4,�L
2023/12/18,16:40,0.507,0.768,0.479,0.964,0.690,0.309,0.557,0.523,�k�k��,3.6,��
2023/12/18,16:50,0.508,0.769,0.478,0.965,0.689,0.310,0.558,0.522,�k�k��,3.7,��
2023/12/18,17:00,0.508,0.770,0.478,0.964,0.689,0.309,0.557,0.522,�k�k��,3.9,��
2023/12/18,17:10,0.509,0.769,0.478,0.964,0.693,0.309,0.559,0.523,�k�k��,3.7,��
2023/12/18,17:20,0.507,0.769,0.478,0.964,0.690,0.309,0.558,0.521,�k��,3.1,��
2023/12/18,17:30,0.507,0.768,0.479,0.962,0.692,0.310,0.558,0.521,�k�k��,2.8,��
2023/12/18,17:40,0.507,0.769,0.479,0.965,0.691,0.310,0.558,0.521,�k�k��,3.0,��
2023/12/18,17:50,0.507,0.767,0.479,0.961,0.689,0.310,0.559,0.522,�k��,3.0,��
2023/12/18,18:00,0.506,0.769,0.479,0.964,0.693,0.310,0.557,0.522,�k�k��,2.3,�L
2023/12/18,18:10,0.507,0.767,0.478,0.966,0.690,0.309,0.558,0.521,�k�k��,2.3,��
2023/12/18,18:20,0.507,0.766,0.479,0.964,0.689,0.308,0.556,0.521,�k��,2.9,��
2023/12/18,18:30,0.508,0.768,0.479,0.964,0.691,0.310,0.558,0.523,�k�k��,3.1,��
2023/12/18,18:40,0.508,0.767,0.480,0.963,0.691,0.310,0.557,0.520,�k�k��,3.0,��
2023/12/18,18:50,0.507,0.770,0.479,0.965,0.691,0.310,0.557,0.522,�k�k��,2.2,��
2023/12/18,19:00,0.506,0.768,0.480,0.963,0.691,0.308,0.557,0.522,�k�k��,2.0,��
2023/12/18,19:10,0.506,0.768,0.478,0.962,0.692,0.310,0.558,0.520,�k��,2.3,��
2023/12/18,19:20,0.506,0.767,0.480,0.964,0.690,0.310,0.555,0.522,���k��,1.4,��
2023/12/18,19:30,0.508,0.769,0.480,0.963,0.690,0.309,0.558,0.522,�k�k��,2.6,��
2023/12/18,19:40,0.505,0.767,0.479,0.964,0.691,0.310,0.556,0.522,�k�k��,2.8,��
2023/12/18,19:50,0.507,0.768,0.479,0.965,0.690,0.310,0.557,0.523,�k�k��,3.2,��
2023/12/18,20:00,0.507,0.767,0.478,0.962,0.690,0.309,0.556,0.521,�k�k��,3.7,��
2023/12/18,20:10,0.506,0.770,0.478,0.964,0.691,0.310,0.556,0.522,�k�k��,3.5,��
2023/12/18,20:20,0.506,0.766,0.477,0.962,0.690,0.308,0.554,0.521,�k�k��,3.1,��
2023/12/18,20:30,0.506,0.767,0.479,0.964,0.691,0.310,0.557,0.520,�k�k��,3.7,��
2023/12/18,20:40,0.508,0.769,0.479,0.963,0.693,0.310,0.556,0.522,�k�k��,3.5,��
2023/12/18,20:50,0.507,0.767,0.477,0.965,0.690,0.310,0.555,0.521,�k�k��,2.8,��
2023/12/18,21:00,0.505,0.768,0.477,0.962,0.690,0.307,0.555,0.522,�k�k��,2.5,��
2023/12/18,21:10,0.505,0.767,0.478,0.965,0.690,0.308,0.555,0.521,�k,1.5,��
2023/12/18,21:20,0.507,0.768,0.478,0.962,0.691,0.308,0.556,0.521,�k�k��,1.5,��
2023/12/18,21:30,0.507,0.770,0.478,0.965,0.690,0.309,0.555,0.522,�k��,1.9,��
2023/12/18,21:40,0.506,0.768,0.478,0.964,0.690,0.309,0.556,0.521,�k��,1.4,��
2023/12/18,21:50,0.507,0.768,0.477,0.962,0.691,0.309,0.555,0.521,�k��,0.9,��
2023/12/18,22:00,0.507,0.768,0.478,0.963,0.689,0.309,0.555,0.522,���k��,1.2,��
2023/12/18,22:10,0.505,0.767,0.479,0.964,0.692,0.308,0.556,0.521,�k��,1.1,��
2023/12/18,22:20,0.506,0.766,0.478,0.963,0.691,0.309,0.555,0.521,��,1.5,��
2023/12/18,22:30,0.507,0.767,0.477,0.961,0.691,0.308,0.555,0.521,���k��,1.8,��
2023/12/18,22:40,0.508,0.769,0.478,0.963,0.691,0.309,0.556,0.521,���k��,1.9,��
2023/12/18,22:50,0.506,0.768,0.477,0.963,0.690,0.309,0.557,0.521,���k��,1.1,��
2023/12/18,23:00,0.506,0.769,0.478,0.964,0.691,0.310,0.555,0.521,���k��,1.5,��
2023/12/18,23:10,0.505,0.769,0.477,0.962,0.690,0.308,0.556,0.523,�k��,1.9,��
2023/12/18,23:20,0.506,0.768,0.479,0.965,0.690,0.309,0.555,0.521,�k��,1.9,��
2023/12/18,23:30,0.507,0.768,0.478,0.962,0.691,0.308,0.555,0.521,�k��,0.8,��
2023/12/18,23:40,0.507,0.769,0.479,0.962,0.692,0.310,0.555,0.522,��쐼,0.6,��
2023/12/18,23:50,0.506,0.767,0.478,0.965,0.692,0.309,0.555,0.522,-,CALM,��
